Location: Erskine
(52.3216°N, 112.8806°W)
Time: 10:53:45
(UTC+00:00)

Oscar 11 - Visible Passes

Search period start: 05 December 2023 00:00
Search period end: 15 December 2023 00:00
Orbit: 605 x 617 km, 97.7° (Epoch: 04 December)

Date Brightness Start Highest point End Pass type
(mag) Time Alt. Az. Time Alt. Az. Time Alt. Az.
07 Dec 10.0 00:04:38 10° WSW 00:06:51 14° W 00:09:03 10° NW visible
12 Dec 9.9 23:55:28 10° SW 23:58:11 16° W 00:00:54 10° NW visible
14 Dec 10.1 00:11:15 10° WSW 00:12:55 12° W 00:14:36 10° WNW visible
